Jamaica, NY

9:31 AM EDT on August 29, 2016 (GMT -0400)
Kennedy International

Weather History for KJFK - August, 2013

Change the Weather History Date:

Friday, August 2, 2013

  Actual Average Record
Temperature  
Mean Temperature 77 °F 76 °F  
Max Temperature 85 °F 83 °F 98 °F (1975)
Min Temperature 68 °F 69 °F 59 °F (1985)
Degree Days  
Heating Degree Days 0 0  
Month to date heating degree days 0 0  
Since 1 June heating degree days 10 21  
Since 1 July heating degree days 0 0  
Cooling Degree Days 12 11  
Month to date cooling degree days 20 22  
Year to date cooling degree days 681 577  
Since 1 June cooling degree days 655 542  
Growing Degree Days 26 (Base 50)    
Moisture  
Dew Point 64 °F    
Average Humidity 70    
Maximum Humidity 97    
Minimum Humidity 43    
Precipitation  
Precipitation 0.00 in 0.13 in 0.94 in (1986)
Month to date precipitation 0.65 0.26  
Year to date precipitation 24.11 25.54  
Snow  
Snow 0.00 in 0.00 in - ()
Month to date snowfall 0.0 0.0  
Since 1 July snowfall 0.0 0.0  
Snow Depth 0.00 in    
Sea Level Pressure  
Sea Level Pressure 29.87 in    
Wind  
Wind Speed 10 mph (WSW)    
Max Wind Speed 22 mph    
Max Gust Speed -    
Visibility 10 miles    
Events      
T = Trace of Precipitation, MM = Missing Value Source: NWS Daily Summary

Daily Weather History Graph

Daily Weather History Graph

Search for Another Location

Airport or City:

Trip Planner

Search our weather history database for the weather conditions in past years. The results will help you decide how hot, cold, wet, or windy it might be!

Date:

Astronomy

Aug. 02, 2013 Rise Set
Actual Time 5:53 AM EDT 8:08 PM EDT
Civil Twilight 5:22 AM EDT 8:39 PM EDT
Nautical Twilight 4:44 AM EDT 9:16 PM EDT
Astronomical Twilight 4:03 AM EDT 9:58 PM EDT
Moon 2:11 AM EDT (8/2) 5:04 PM EDT (8/2)
Length of Visible Light 15h 16m
Length of Day
14h 15m
Waning Crescent, 16% of the Moon is Illuminated
Aug 2
Waning Crescent
Aug 6
New
Aug 14
First Quarter
Aug 20
Full
Aug 28
Last Quarter

Hourly Weather History & Observations

Time (EDT) Temp. Heat Index Dew Point Humidity Pressure Visibility Wind Dir Wind Speed Gust Speed Precip Events Conditions
12:10 AM 71.6 °F - 68.0 °F 88% 29.85 in 10.0 mi SSW 6.9 mph - N/A   Overcast
12:51 AM 71.1 °F - 69.1 °F 93% 29.84 in 10.0 mi SSW 5.8 mph - N/A   Overcast
1:51 AM 71.1 °F - 69.1 °F 93% 29.83 in 10.0 mi WSW 5.8 mph - N/A   Overcast
2:16 AM 71.6 °F - 69.8 °F 94% 29.81 in 10.0 mi WSW 4.6 mph - N/A   Overcast
2:51 AM 70.0 °F - 68.0 °F 93% 29.80 in 9.0 mi WSW 4.6 mph - N/A   Mostly Cloudy
3:51 AM 70.0 °F - 68.0 °F 93% 29.81 in 7.0 mi Calm Calm - N/A   Scattered Clouds
4:12 AM 69.8 °F - 66.2 °F 88% 29.81 in 7.0 mi West 3.5 mph - N/A   Scattered Clouds
4:51 AM 70.0 °F - 66.9 °F 90% 29.82 in 7.0 mi WNW 6.9 mph - N/A   Scattered Clouds
5:51 AM 69.1 °F - 66.0 °F 90% 29.84 in 7.0 mi NW 8.1 mph - N/A   Scattered Clouds
6:51 AM 70.0 °F - 66.9 °F 90% 29.87 in 8.0 mi West 5.8 mph - N/A   Scattered Clouds
7:51 AM 72.0 °F - 64.0 °F 76% 29.88 in 10.0 mi NW 9.2 mph - N/A   Partly Cloudy
8:51 AM 73.9 °F - 62.1 °F 66% 29.89 in 10.0 mi NNW 8.1 mph - N/A   Partly Cloudy
9:51 AM 79.0 °F - 61.0 °F 54% 29.90 in 10.0 mi NW 5.8 mph - N/A   Scattered Clouds
10:51 AM 81.0 °F 81.3 °F 59.0 °F 47% 29.91 in 10.0 mi West 9.2 mph - N/A   Scattered Clouds
11:51 AM 82.0 °F 81.7 °F 57.0 °F 42% 29.91 in 10.0 mi West 9.2 mph - N/A   Scattered Clouds
12:51 PM 82.0 °F 82.7 °F 61.0 °F 49% 29.91 in 10.0 mi SW 11.5 mph - N/A   Scattered Clouds
1:51 PM 82.9 °F 83.3 °F 61.0 °F 47% 29.90 in 10.0 mi SW 16.1 mph - N/A   Scattered Clouds
2:51 PM 84.9 °F 84.4 °F 59.0 °F 41% 29.89 in 10.0 mi WSW 17.3 mph - N/A   Scattered Clouds
3:51 PM 81.0 °F 81.9 °F 62.1 °F 52% 29.89 in 10.0 mi South 16.1 mph - N/A   Scattered Clouds
4:51 PM 80.1 °F 82.1 °F 66.0 °F 62% 29.88 in 10.0 mi South 17.3 mph - N/A   Mostly Cloudy
5:51 PM 78.1 °F - 68.0 °F 71% 29.88 in 10.0 mi South 11.5 mph - N/A   Mostly Cloudy
6:51 PM 81.0 °F 81.9 °F 62.1 °F 52% 29.86 in 10.0 mi SW 15.0 mph - N/A   Mostly Cloudy
7:51 PM 80.1 °F 81.1 °F 61.0 °F 52% 29.89 in 10.0 mi WSW 12.7 mph - N/A   Mostly Cloudy
8:51 PM 79.0 °F - 62.1 °F 56% 29.90 in 10.0 mi SW 11.5 mph - N/A   Mostly Cloudy
9:51 PM 77.0 °F - 64.9 °F 66% 29.91 in 10.0 mi SW 10.4 mph - N/A   Mostly Cloudy
10:51 PM 75.9 °F - 64.9 °F 69% 29.92 in 10.0 mi WSW 11.5 mph - N/A   Mostly Cloudy
11:51 PM 75.9 °F - 64.0 °F 67% 29.93 in 10.0 mi WSW 10.4 mph - N/A   Mostly Cloudy